• In Moldova, Republic
  • List of Countries
  • For 7 days
  • Water Temperature
  • Satellite Maps
  • Weather Map
  • Weather Widgets
  • user-avatar
    Login

    Hourly Weather Malanje

    Today, 26 February, Sunday

    Time Temperature Precipitation Wind Pressure Humidity
    00:00 +20°C° 0.1 mm 1 mps 665 mmHg 89%
    01:00 +19°C° 0.1 mm 1 mps 665 mmHg 90%
    02:00 +19°C° 0.2 mm 1 mps 665 mmHg 90%
    03:00 +19°C° 0.2 mm 1 mps 664 mmHg 91%
    04:00 +19°C° 0.2 mm 1 mps 664 mmHg 92%
    05:00 +19°C° 0.1 mm 1 mps 664 mmHg 91%
    06:00 +19°C° 0.1 mm 1 mps 664 mmHg 90%
    07:00 +19°C° 0.1 mm 1 mps 665 mmHg 90%
    08:00 +21°C° 0 mm 1 mps 665 mmHg 82%
    09:00 +24°C° 0 mm 1 mps 666 mmHg 73%
    10:00 +26°C° 0 mm 1 mps 666 mmHg 65%
    11:00 +27°C° 0.3 mm 1 mps 666 mmHg 62%
    12:00 +28°C° 0.3 mm 1 mps 665 mmHg 60%
    13:00 +28°C° 0.3 mm 0 mps 665 mmHg 57%
    14:00 +29°C° 0.8 mm 1 mps 664 mmHg 60%
    15:00 +28°C° 0.8 mm 1 mps 663 mmHg 63%
    16:00 +27°C° 0.8 mm 2 mps 663 mmHg 67%
    17:00 +26°C° 0.1 mm 2 mps 663 mmHg 72%
    18:00 +25°C° 0.1 mm 2 mps 662 mmHg 76%
    19:00 +23°C° 0.1 mm 2 mps 662 mmHg 81%
    20:00 +21°C° 0.1 mm 2 mps 663 mmHg 83%
    21:00 +21°C° 0.1 mm 2 mps 663 mmHg 85%
    22:00 +20°C° 0.1 mm 2 mps 663 mmHg 87%
    23:00 +19°C° 0 mm 2 mps 663 mmHg 89%

    Tomorrow, 27 February, Monday

    Time Temperature Precipitation Wind Pressure Humidity
    00:00 +19°C° 0 mm 2 mps 663 mmHg 91%
    01:00 +18°C° 0 mm 2 mps 663 mmHg 92%
    02:00 +18°C° 0 mm 2 mps 663 mmHg 93%
    03:00 +18°C° 0 mm 2 mps 662 mmHg 95%
    04:00 +17°C° 0 mm 2 mps 662 mmHg 96%
    05:00 +18°C° 0 mm 2 mps 663 mmHg 94%
    06:00 +18°C° 0 mm 2 mps 663 mmHg 93%
    07:00 +18°C° 0 mm 2 mps 663 mmHg 92%
    08:00 +21°C° 0 mm 2 mps 664 mmHg 79%
    09:00 +24°C° 0 mm 2 mps 665 mmHg 67%
    10:00 +27°C° 0 mm 2 mps 666 mmHg 55%
    11:00 +28°C° 0.1 mm 3 mps 665 mmHg 51%
    12:00 +29°C° 0.1 mm 3 mps 664 mmHg 48%
    13:00 +31°C° 0.1 mm 3 mps 664 mmHg 44%
    14:00 +30°C° 0.1 mm 3 mps 663 mmHg 45%
    15:00 +30°C° 0.1 mm 3 mps 663 mmHg 46%
    16:00 +30°C° 0.1 mm 3 mps 662 mmHg 47%
    17:00 +28°C° 0.1 mm 3 mps 662 mmHg 52%
    18:00 +26°C° 0.1 mm 3 mps 662 mmHg 57%
    19:00 +24°C° 0.1 mm 3 mps 662 mmHg 62%
    20:00 +22°C° 0 mm 3 mps 663 mmHg 64%
    21:00 +21°C° 0 mm 2 mps 663 mmHg 65%
    22:00 +21°C° 0 mm 2 mps 664 mmHg 67%
    23:00 +20°C° 0 mm 3 mps 663 mmHg 74%

    Day after tomorrow, 28 February, Tuesday

    Time Temperature Precipitation Wind Pressure Humidity
    00:00 +19°C° 0 mm 3 mps 663 mmHg 82%
    01:00 +18°C° 0 mm 3 mps 663 mmHg 90%
    02:00 +18°C° 0 mm 3 mps 663 mmHg 91%
    03:00 +18°C° 0 mm 3 mps 662 mmHg 93%
    04:00 +18°C° 0 mm 3 mps 662 mmHg 95%
    05:00 +18°C° 0 mm 3 mps 663 mmHg 94%
    06:00 +18°C° 0 mm 3 mps 663 mmHg 93%
    07:00 +18°C° 0 mm 3 mps 664 mmHg 92%
    08:00 +20°C° 0 mm 3 mps 664 mmHg 79%
    09:00 +22°C° 0 mm 3 mps 665 mmHg 66%
    10:00 +25°C° 0 mm 3 mps 666 mmHg 53%
    11:00 +27°C° 0 mm 3 mps 665 mmHg 46%
    12:00 +29°C° 0 mm 3 mps 665 mmHg 39%
    13:00 +32°C° 0 mm 4 mps 665 mmHg 33%
    14:00 +32°C° 0 mm 4 mps 664 mmHg 34%
    15:00 +32°C° 0 mm 4 mps 664 mmHg 35%
    16:00 +32°C° 0 mm 4 mps 663 mmHg 36%
    17:00 +28°C° 0 mm 4 mps 663 mmHg 41%
    18:00 +26°C° 0 mm 4 mps 663 mmHg 47%
    19:00 +22°C° 0 mm 3 mps 663 mmHg 52%
    20:00 +22°C° 0 mm 3 mps 664 mmHg 56%
    21:00 +21°C° 0 mm 3 mps 664 mmHg 59%
    22:00 +20°C° 0 mm 3 mps 664 mmHg 63%
    23:00 +19°C° 0 mm 3 mps 664 mmHg 69%

    1 March, Wednesday

    Time Temperature Precipitation Wind Pressure Humidity
    00:00 +18°C° 0 mm 3 mps 664 mmHg 75%
    01:00 +18°C° 0 mm 3 mps 663 mmHg 81%
    02:00 +17°C° 0 mm 2 mps 663 mmHg 85%
    03:00 +17°C° 0 mm 2 mps 663 mmHg 89%
    04:00 +16°C° 0 mm 2 mps 662 mmHg 93%
    05:00 +17°C° 0 mm 2 mps 663 mmHg 91%
    06:00 +17°C° 0 mm 2 mps 663 mmHg 90%
    07:00 +17°C° 0 mm 2 mps 664 mmHg 88%
    08:00 +20°C° 0 mm 2 mps 665 mmHg 75%
    09:00 +23°C° 0 mm 2 mps 665 mmHg 62%
    10:00 +25°C° 0 mm 2 mps 666 mmHg 50%
    11:00 +27°C° 0 mm 3 mps 666 mmHg 44%
    12:00 +28°C° 0 mm 3 mps 665 mmHg 39%
    13:00 +30°C° 0 mm 3 mps 665 mmHg 34%
    14:00 +30°C° 0 mm 4 mps 664 mmHg 35%
    15:00 +30°C° 0 mm 4 mps 664 mmHg 35%
    16:00 +29°C° 0 mm 4 mps 663 mmHg 36%
    17:00 +27°C° 0 mm 4 mps 663 mmHg 42%
    18:00 +25°C° 0 mm 3 mps 663 mmHg 48%
    19:00 +21°C° 0 mm 3 mps 663 mmHg 54%
    20:00 +20°C° 0 mm 3 mps 664 mmHg 57%
    21:00 +20°C° 0 mm 3 mps 664 mmHg 60%
    22:00 +19°C° 0 mm 3 mps 665 mmHg 64%
    23:00 +18°C° 0 mm 2 mps 665 mmHg 70%

    2 March, Thursday

    Time Temperature Precipitation Wind Pressure Humidity
    00:00 +18°C° 0 mm 2 mps 664 mmHg 76%
    01:00 +17°C° 0 mm 2 mps 664 mmHg 83%
    02:00 +17°C° 0 mm 2 mps 664 mmHg 87%
    03:00 +17°C° 0 mm 2 mps 664 mmHg 90%
    04:00 +16°C° 0 mm 2 mps 663 mmHg 94%
    05:00 +17°C° 0 mm 2 mps 664 mmHg 93%
    06:00 +17°C° 0 mm 2 mps 664 mmHg 93%
    07:00 +17°C° 0 mm 2 mps 665 mmHg 92%
    08:00 +20°C° 0 mm 2 mps 665 mmHg 79%
    09:00 +23°C° 0 mm 2 mps 666 mmHg 66%
    10:00 +26°C° 0 mm 2 mps 667 mmHg 52%
    11:00 +27°C° 0 mm 3 mps 666 mmHg 46%
    12:00 +29°C° 0 mm 3 mps 666 mmHg 39%
    13:00 +30°C° 0 mm 3 mps 666 mmHg 33%
    14:00 +30°C° 0 mm 3 mps 665 mmHg 33%
    15:00 +30°C° 0 mm 3 mps 665 mmHg 34%
    16:00 +30°C° 0 mm 4 mps 664 mmHg 34%
    17:00 +28°C° 0 mm 3 mps 664 mmHg 39%
    18:00 +26°C° 0 mm 3 mps 664 mmHg 44%
    19:00 +23°C° 0 mm 2 mps 664 mmHg 48%
    20:00 +21°C° 0 mm 2 mps 664 mmHg 52%
    21:00 +20°C° 0 mm 2 mps 664 mmHg 55%
    22:00 +19°C° 0 mm 2 mps 664 mmHg 59%
    23:00 +19°C° 0 mm 2 mps 664 mmHg 62%

    3 March, Friday

    Time Temperature Precipitation Wind Pressure Humidity
    00:00 +18°C° 0 mm 2 mps 663 mmHg 65%
    01:00 +18°C° 0 mm 2 mps 663 mmHg 68%
    02:00 +19°C° 0 mm 1 mps 663 mmHg 71%
    03:00 +18°C° 0 mm 1 mps 663 mmHg 74%
    04:00 +18°C° 0 mm 1 mps 663 mmHg 78%
    05:00 +19°C° 0 mm 1 mps 663 mmHg 76%
    06:00 +20°C° 0 mm 1 mps 664 mmHg 75%
    07:00 +20°C° 0 mm 1 mps 664 mmHg 74%
    08:00 +23°C° 0 mm 1 mps 665 mmHg 65%
    09:00 +25°C° 0 mm 2 mps 665 mmHg 57%
    10:00 +27°C° 0 mm 2 mps 666 mmHg 48%
    11:00 +29°C° 0 mm 2 mps 666 mmHg 44%
    12:00 +30°C° 0 mm 3 mps 665 mmHg 39%
    13:00 +31°C° 0 mm 3 mps 665 mmHg 35%
    14:00 +31°C° 0 mm 3 mps 664 mmHg 35%
    15:00 +31°C° 0 mm 3 mps 664 mmHg 34%
    16:00 +32°C° 0 mm 4 mps 663 mmHg 34%
    17:00 +29°C° 0 mm 3 mps 663 mmHg 39%
    18:00 +26°C° 0 mm 3 mps 663 mmHg 44%
    19:00 +24°C° 0 mm 3 mps 662 mmHg 48%
    20:00 +21°C° 0 mm 3 mps 663 mmHg 51%
    21:00 +20°C° 0 mm 3 mps 663 mmHg 54%
    22:00 +19°C° 0 mm 2 mps 663 mmHg 56%
    23:00 +18°C° 0 mm 2 mps 663 mmHg 61%
    Show more